Location: Dimmb�l�
(14.6452°N, 3.2001°W)
Time: 23:18:39
(UTC+00:00)

Daily predictions for brighter satellites

Satellite Brightness Start Highest point End
(mag) Time Altitude Azimuth Time Altitude Azimuth Time Altitude Azimuth
Ariane H10+ 3.5 18:37:44 10° SW 18:40:09 28° S 18:43:54 10° ESE
GPS 2-14 Rocket1 3.6 18:37:03 10° SW 18:40:27 32° SSE 18:43:50 10° E
Cosmos 2360 Rocket 3.9 18:40:06 10° ESE 18:41:32 11° E 18:42:58 10° E
Cosmos 2297 Rocket 2.2 18:35:59 10° N 18:41:36 70° ENE 18:47:12 10° SSE
Cosmos 1812 2.6 18:41:43 10° N 18:45:30 68° E 18:49:18 10° SSE
ATLAS 5 CENTAUR R/B 1.3 18:43:41 10° WNW 18:45:36 20° N 18:47:04 10° NE
Cosmos 1689 Rocket 2.1 18:43:52 10° N 18:46:44 81° W 18:49:36 10° SSW
FUSE 4.0 18:41:36 10° WSW 18:47:00 82° SSE 18:52:24 10° ENE
H-2A R/B 4.1 18:24:31 10° SW 18:47:06 29° S 18:52:13 10° ESE
Meteor 2-6 Rocket 4.1 18:41:50 10° N 18:47:24 79° E 18:52:50 10° S
CZ-2C R/B 2.9 18:42:14 10° NNE 18:47:26 47° E 18:52:31 10° S
YAOGAN 1 3.3 18:44:49 10° SE 18:48:34 30° ENE 18:52:20 10° NNE
Helios 1A Rocket 4.5 18:46:50 10° ESE 18:49:16 15° ENE 18:51:40 10° NE
Okean-O 3.4 18:46:05 10° SE 18:49:55 30° ENE 18:53:45 10° NNE
BREEZE-M DEB (TANK) 4.1 18:48:31 10° NNW 18:52:17 58° ENE 19:04:55 10° SE
Cosmos 2181 Rocket 4.3 18:49:17 10° NNE 18:55:24 46° E 19:01:25 10° SSE
Cosmos 1980 Rocket 4.3 18:52:02 10° SW 18:56:51 29° WNW 19:01:42 10° N
Cosmos 1242 Rocket 2.4 18:53:27 10° N 18:57:01 84° E 19:00:38 10° S
Sich 1 3.2 18:55:24 10° S 18:59:41 78° W 19:04:02 10° N
Cosmos 2219 3.4 18:55:19 10° NNW 19:00:54 79° WSW 19:06:31 10° SSE
SWIFT 3.5 18:58:53 10° SW 19:02:34 30° SSE 19:05:17 15° ESE
Cosmos 1818 4.4 19:00:04 10° N 19:04:41 28° ENE 19:09:16 10° ESE
Cosmos 1302 Rocket 4.1 18:59:47 10° SSW 19:04:58 80° WNW 19:10:08 10° N
Cosmos 2322 Rocket 2.4 19:00:57 10° S 19:06:18 47° ESE 19:11:38 10° NNE
OAO 2 Rocket 3.4 19:03:01 10° NW 19:08:16 90° N 19:13:21 11° SE
SJ-11-01 4.4 19:04:25 10° SSE 19:08:55 52° ENE 19:13:26 10° N
Delta 2 Rocket 4.1 19:08:35 10° SW 19:14:32 52° SSE 19:18:19 22° E
Ariane H10 4.3 18:58:43 10° W 19:14:34 46° SSW 19:17:34 16° ESE
Cosmos 1633 Rocket 2.9 19:11:28 10° S 19:15:48 71° E 19:20:10 10° N
SL-8 R/B 3.9 19:13:43 10° NNW 19:18:21 49° NE 19:21:11 22° ESE
Meteor 1-20 Rocket 4.2 19:13:49 10° S 19:19:20 87° W 19:24:47 10° N
Atlas Centaur 2 2.4 19:13:25 10° NW 19:19:27 48° NNE 19:22:03 26° E
ARIANE 5 R/B 3.3 19:04:54 10° W 19:21:25 41° SSW 19:24:23 17° SE
SL-16 R/B 2.3 19:20:01 10° SSW 19:25:40 77° WNW 19:31:20 10° NNE
Cosmos 2082 3.6 19:20:54 10° N 19:26:28 66° ENE 19:32:02 10° SSE
Cosmos 1707 Rocket 3.9 19:24:00 10° NNE 19:28:06 40° E 19:32:10 10° SSE
ARIANE 2 DEBRIS 4.3 19:26:43 10° SW 19:29:29 28° SSE 19:31:17 22° SE
Cosmos 2237 4.3 19:25:36 10° S 19:31:06 52° ESE 19:35:22 17° NNE
ATLAS 3B CENTAUR R/B 4.0 19:15:43 10° WNW 19:31:39 63° SW 19:38:13 14° SE
Cosmos 2327 Rocket 4.4 19:26:13 10° S 19:32:36 77° E 19:38:58 10° N
Cosmos 1741 Rocket 3.9 19:27:51 10° NNW 19:33:10 88° ENE 19:38:26 10° SSE
CZ-4 R/B 2.5 19:30:02 10° S 19:33:42 43° W 19:37:21 10° NNW
RESURS DK-1 3.5 19:29:50 10° NNW 19:33:46 44° WSW 19:37:41 10° S
ATLAS CENTAUR R/B 2.2 19:34:18 10° S 19:36:39 29° SSE 19:36:39 29° SSE
Palapa 6 Rocket 4.4 19:30:29 10° WSW 19:38:25 82° NNW 19:42:40 32° ENE
SL-24 R/B - RUBIN 2 3.6 19:33:31 10° NNW 19:38:35 78° ENE 19:41:38 21° SSE
Cosmos 2154 Rocket 3.9 19:32:58 10° S 19:39:15 89° E 19:45:29 10° N
CZ-2C R/B 1.4 19:37:04 10° WNW 19:40:07 46° SW 19:40:38 41° S
Cosmos 1470 Rocket 3.5 19:43:22 10° S 19:47:50 86° W 19:52:19 10° N
Meteor 1-14 Rocket 4.1 19:44:14 10° S 19:49:58 78° E 19:55:34 10° N
SME Rocket 3.6 19:48:03 10° NNE 19:54:35 86° WNW 19:59:03 10° SSW
H-2A R/B 3.7 19:52:35 10° SSW 19:57:20 34° W 20:02:12 10° NW
Nadezhda 3 Rocket 4.1 19:51:35 10° N 20:03:33 12° SSE 20:03:52 10° SSE
ARGOS 3.8 19:53:47 10° S 19:59:02 55° WSW 20:04:19 10° NNW
Cosmos 2263 Rocket 4.2 19:55:20 10° N 19:55:56 13° NNE 19:55:56 13° NNE
SL-08 RB Rocket 3.9 19:56:28 10° S 20:00:53 68° WSW 20:05:20 10° NNW
Delta 7925 Rocket 4.3 19:57:10 10° W 20:01:25 34° NNW 20:01:53 34° N
Cosmos 2333 Rocket 4.4 20:05:55 10° S 20:06:16 12° SSE 20:06:16 12° SSE
GPS 2-15 Rocket1 4.3 20:14:57 10° WNW 20:18:23 38° NW 20:18:23 38° NW
Cosmos 2341 Rocket 4.1 20:17:38 10° S 20:24:00 76° W 20:27:10 32° N
Maqsat-H 4.2 14:28:20 10° WSW 20:24:43 66° SSW 20:28:47 45° SE
Cosmos 2360 Rocket 2.9 20:19:36 10° SSW 20:25:02 51° WNW 20:26:28 41° NNW
COSMOS 2455 3.6 20:19:18 10° NNW 20:23:03 41° NNW 20:23:03 41° NNW
Milstar 3 3.5 20:44:56 10° WNW 20:55:34 57° SSW 20:55:34 57° SSW
